Terminal Aerodrome Forecast
Issued by NWS

Current Version | Previous Version | Text Only | Print | Product List | Glossary Off
Versions: 1 2 3 4 5 6 7 8 9 10 11 12 13 14 15 16 17 18 19 20 21 22 23 24 25 26 27 28 29 30 31 32 33 34 35 36 37 38 39 40 41 42 43 44 45 46 47 48 49 50

000
FTUS41 KRNK 191422 AAA
TAFLWB
TAF AMD
KLWB 191422Z 1914/2012 33010G20KT P6SM SCT028 BKN035
      TEMPO 1914/1916 BKN028
     FM191700 30008G16KT P6SM FEW035
     FM192200 00000KT P6SM SKC=

USA.gov is the U.S. government's official web portal to all federal, state and local government web resources and services.